Location: Dimsdale
(55.1333°N, 118.9833°W)
Time: 01:51:37
(UTC+00:00)

MOZHAYETS 4 - Pass Details

Date: 09 December 2023
Orbit: 654 x 672 km, 98.3° (Epoch: 26 February)

Event Time Altitude Azimuth Distance (km) Brightness Sun altitude
Rises 00:27:34 0° 14° (NNE) 3,039 10.7 -7.8°
Reaches altitude 10° 00:29:48 10° 12° (NNE) 2,122 9.9 -8.1°
Maximum altitude 00:34:25 71° 290° (WNW) 721 8.0 -8.7°
Drops below altitude 10° 00:39:01 10° 207° (SSW) 2,107 11.2 -9.3°
Sets 00:41:14 0° 205° (SSW) 3,016 12.0 -9.6°
